Colwell, IA

7:46 PM CST on February 19, 2017 (GMT -0600)
Charles City Municipal

Weather History for KCCY - July, 2013

Change the Weather History Date:

Thursday, July 11, 2013

  Actual Average Record
Temperature  
Mean Temperature 70 °F -  
Max Temperature 80 °F 84 °F 96 °F (1989)
Min Temperature 59 °F 62 °F 51 °F (1959)
Cooling Degree Days 4    
Growing Degree Days 20 (Base 50)    
Moisture  
Dew Point 57 °F    
Average Humidity 64    
Maximum Humidity 94    
Minimum Humidity 39    
Precipitation  
Precipitation 0.00 in - - ()
Sea Level Pressure  
Sea Level Pressure 30.11 in    
Wind  
Wind Speed 3 mph (SSE)    
Max Wind Speed 13 mph    
Max Gust Speed 18 mph    
Visibility 9 miles    
Events      
Averages and records for this station are not official NWS values.
T = Trace of Precipitation, MM = Missing Value Source: NWS Daily Summary

Daily Weather History Graph

Daily Weather History Graph

Search for Another Location

Airport or City:

Trip Planner

Search our weather history database for the weather conditions in past years. The results will help you decide how hot, cold, wet, or windy it might be!

Date:

Astronomy

Jul. 11, 2013 Rise Set
Actual Time 5:41 AM CDT 8:49 PM CDT
Civil Twilight 5:07 AM CDT 9:24 PM CDT
Nautical Twilight 4:22 AM CDT 10:08 PM CDT
Astronomical Twilight 3:29 AM CDT 11:01 PM CDT
Moon 9:07 AM CDT (7/11) 10:23 PM CDT (7/11)
Length of Visible Light 16h 17m
Length of Day
15h 08m
Waxing Crescent, 11% of the Moon is Illuminated
Jul 11
Waxing Crescent
Jul 15
First Quarter
Jul 22
Full
Jul 29
Last Quarter
Aug 6
New

Hourly Weather History & Observations

Time (CDT) Temp. Heat Index Dew Point Humidity Pressure Visibility Wind Dir Wind Speed Gust Speed Precip Events Conditions
12:15 AM 62.6 °F - 57.2 °F 82% 30.09 in 10.0 mi Calm Calm - N/A   Clear
12:35 AM 62.6 °F - 57.2 °F 82% 30.09 in 10.0 mi Calm Calm - N/A   Clear
12:55 AM 62.6 °F - 57.2 °F 82% 30.10 in 10.0 mi Calm Calm - N/A   Clear
1:15 AM 62.6 °F - 57.2 °F 82% 30.10 in 10.0 mi Calm Calm - N/A   Clear
1:35 AM 62.6 °F - 55.4 °F 77% 30.10 in 10.0 mi Calm Calm - N/A   Clear
1:55 AM 62.6 °F - 57.2 °F 82% 30.10 in 10.0 mi Calm Calm - N/A   Clear
2:15 AM 60.8 °F - 57.2 °F 88% 30.11 in 10.0 mi Calm Calm - N/A   Clear
2:35 AM 62.6 °F - 57.2 °F 82% 30.11 in 10.0 mi Calm Calm - N/A   Clear
2:55 AM 62.6 °F - 55.4 °F 77% 30.10 in 10.0 mi Calm Calm - N/A   Clear
3:15 AM 60.8 °F - 57.2 °F 88% 30.11 in 10.0 mi Calm Calm - N/A   Clear
3:35 AM 60.8 °F - 55.4 °F 82% 30.11 in 10.0 mi Calm Calm - N/A   Clear
3:55 AM 60.8 °F - 55.4 °F 82% 30.11 in 10.0 mi Calm Calm - N/A   Clear
4:15 AM 60.8 °F - 57.2 °F 88% 30.11 in 9.0 mi NW 3.5 mph - N/A   Clear
4:35 AM 59.0 °F - 57.2 °F 94% 30.12 in 8.0 mi NW 3.5 mph - N/A   Clear
4:55 AM 59.0 °F - 57.2 °F 94% 30.12 in 9.0 mi Calm Calm - N/A   Clear
5:15 AM 60.8 °F - 55.4 °F 82% 30.12 in 8.0 mi Calm Calm - N/A   Clear
5:35 AM 60.8 °F - 55.4 °F 82% 30.12 in - Calm Calm - N/A   Clear
5:55 AM 59.0 °F - 55.4 °F 88% 30.13 in 6.0 mi NE 3.5 mph - N/A   Clear
6:15 AM 59.0 °F - 57.2 °F 94% 30.14 in 5.0 mi North 4.6 mph - N/A   Clear
6:35 AM 60.8 °F - 57.2 °F 88% 30.14 in 5.0 mi NNE 3.5 mph - N/A   Clear
6:55 AM 62.6 °F - 57.2 °F 82% 30.14 in 6.0 mi Calm Calm - N/A   Haze
7:15 AM 62.6 °F - 59.0 °F 88% 30.14 in 5.0 mi Calm Calm - N/A   Clear
7:35 AM 64.4 °F - 60.8 °F 88% 30.14 in 5.0 mi Calm Calm - N/A   Haze
7:55 AM 68.0 °F - 60.8 °F 78% 30.15 in 6.0 mi Calm Calm - N/A   Haze
8:15 AM 69.8 °F - 60.8 °F 73% 30.15 in 9.0 mi Calm Calm - N/A   Clear
8:35 AM 69.8 °F - 59.0 °F 68% 30.15 in 8.0 mi Calm Calm - N/A   Clear
8:55 AM 69.8 °F - 59.0 °F 68% 30.15 in 10.0 mi South 3.5 mph - N/A   Clear
9:15 AM 71.6 °F - 57.2 °F 60% 30.15 in 9.0 mi SSW 4.6 mph - N/A   Clear
9:35 AM 71.6 °F - 57.2 °F 60% 30.14 in 10.0 mi South 5.8 mph - N/A   Clear
9:55 AM 73.4 °F - 57.2 °F 57% 30.14 in 10.0 mi SSW 4.6 mph - N/A   Clear
10:15 AM 73.4 °F - 57.2 °F 57% 30.14 in 10.0 mi Calm Calm - N/A   Clear
10:35 AM 75.2 °F - 55.4 °F 50% 30.14 in 10.0 mi Calm Calm - N/A   Clear
10:55 AM 75.2 °F - 55.4 °F 50% 30.14 in 9.0 mi Calm Calm - N/A   Clear
11:15 AM 77.0 °F - 55.4 °F 47% 30.15 in 10.0 mi ESE 4.6 mph - N/A   Clear
11:35 AM 77.0 °F - 55.4 °F 47% 30.14 in 10.0 mi SSW 6.9 mph - N/A   Clear
11:55 AM 77.0 °F - 55.4 °F 47% 30.14 in 10.0 mi Variable 4.6 mph - N/A   Clear
12:15 PM 77.0 °F - 55.4 °F 47% 30.14 in 10.0 mi SE 6.9 mph - N/A   Clear
12:35 PM 78.8 °F - 55.4 °F 44% 30.14 in 10.0 mi Variable 5.8 mph - N/A   Clear
12:55 PM 78.8 °F - 55.4 °F 44% 30.13 in 10.0 mi SSE 4.6 mph 11.5 mph N/A   Clear
1:15 PM 78.8 °F - 53.6 °F 42% 30.13 in 10.0 mi South 9.2 mph - N/A   Clear
1:35 PM 78.8 °F - 55.4 °F 44% 30.12 in 10.0 mi SE 9.2 mph - N/A   Clear
1:55 PM 80.6 °F 80.3 °F 53.6 °F 39% 30.11 in 10.0 mi SE 11.5 mph - N/A   Clear
2:15 PM 80.6 °F 80.3 °F 53.6 °F 39% 30.11 in 10.0 mi ESE 10.4 mph - N/A   Clear
2:35 PM 80.6 °F 80.3 °F 53.6 °F 39% 30.10 in 10.0 mi ESE 4.6 mph 15.0 mph N/A   Clear
2:55 PM 80.6 °F 80.8 °F 57.2 °F 45% 30.10 in 10.0 mi SE 11.5 mph - N/A   Clear
3:15 PM 80.6 °F 80.5 °F 55.4 °F 42% 30.10 in 10.0 mi SE 12.7 mph - N/A   Clear
3:35 PM 80.6 °F 80.5 °F 55.4 °F 42% 30.10 in 10.0 mi SE 11.5 mph - N/A   Clear
3:55 PM 80.6 °F 80.5 °F 55.4 °F 42% 30.10 in 10.0 mi South 10.4 mph - N/A   Clear
4:15 PM 80.6 °F 80.8 °F 57.2 °F 45% 30.09 in 10.0 mi SSE 12.7 mph - N/A   Clear
4:35 PM 80.6 °F 80.8 °F 57.2 °F 45% 30.09 in 10.0 mi SSE 11.5 mph 18.4 mph N/A   Clear
4:55 PM 80.6 °F 80.5 °F 55.4 °F 42% 30.09 in 10.0 mi SE 10.4 mph - N/A   Clear
5:15 PM 80.6 °F 80.8 °F 57.2 °F 45% 30.09 in 10.0 mi SSE 10.4 mph - N/A   Clear
5:35 PM 80.6 °F 80.8 °F 57.2 °F 45% 30.09 in 10.0 mi SSE 8.1 mph 13.8 mph N/A   Clear
5:55 PM 80.6 °F 80.8 °F 57.2 °F 45% 30.08 in 10.0 mi SSE 12.7 mph - N/A   Clear
6:15 PM 80.6 °F 80.8 °F 57.2 °F 45% 30.08 in 10.0 mi South 11.5 mph - N/A   Clear
6:35 PM 80.6 °F 80.8 °F 57.2 °F 45% 30.08 in 10.0 mi South 11.5 mph - N/A   Clear
6:55 PM 78.8 °F - 57.2 °F 47% 30.08 in 10.0 mi SSE 8.1 mph - N/A   Clear
7:15 PM 78.8 °F - 57.2 °F 47% 30.07 in 10.0 mi SSE 9.2 mph - N/A   Clear
7:35 PM 78.8 °F - 57.2 °F 47% 30.07 in 10.0 mi SSE 8.1 mph - N/A   Clear
7:55 PM 77.0 °F - 57.2 °F 50% 30.07 in 10.0 mi SSE 6.9 mph - N/A   Clear
8:15 PM 75.2 °F - 57.2 °F 53% 30.07 in 10.0 mi SSE 6.9 mph - N/A   Clear
8:35 PM 73.4 °F - 59.0 °F 61% 30.06 in 10.0 mi SSE 6.9 mph - N/A   Clear
8:55 PM 73.4 °F - 59.0 °F 61% 30.06 in 10.0 mi SSE 8.1 mph - N/A   Clear
9:15 PM 71.6 °F - 59.0 °F 64% 30.06 in 10.0 mi SSE 6.9 mph - N/A   Clear
9:35 PM 69.8 °F - 59.0 °F 68% 30.07 in 10.0 mi SSE 5.8 mph - N/A   Clear
9:55 PM 69.8 °F - 59.0 °F 68% 30.07 in 10.0 mi SSE 5.8 mph - N/A   Clear
10:15 PM 69.8 °F - 59.0 °F 68% 30.07 in 10.0 mi SSE 5.8 mph - N/A   Clear
10:35 PM 68.0 °F - 59.0 °F 73% 30.07 in 10.0 mi SE 6.9 mph - N/A   Clear
10:55 PM 68.0 °F - 59.0 °F 73% 30.08 in 10.0 mi SE 6.9 mph - N/A   Clear
11:15 PM 66.2 °F - 59.0 °F 78% 30.07 in 10.0 mi SE 9.2 mph - N/A   Clear
11:35 PM 66.2 °F - 59.0 °F 78% 30.08 in 10.0 mi SE 8.1 mph - N/A   Clear
11:55 PM 66.2 °F - 59.0 °F 78% 30.08 in 10.0 mi SSE 8.1 mph - N/A   Clear